Weather History for Fairmont, MN

Change the Weather History Date:

Monday, January 21, 2013

  Actual Average Record
Temperature  
Mean Temperature 0 °F -  
Max Temperature 6 °F 27 °F 51 °F (1964)
Min Temperature -5 °F 7 °F -33 °F (1970)
Degree Days  
Heating Degree Days 64    
Moisture  
Dew Point -10 °F    
Average Humidity 61    
Maximum Humidity 72    
Minimum Humidity 48    
Precipitation  
Precipitation 0.00 in - - ()
Sea Level Pressure  
Sea Level Pressure 30.29 in    
Wind  
Wind Speed 17 mph (WNW)    
Max Wind Speed 24 mph    
Max Gust Speed 31 mph    
Visibility 10 miles    
Events      
Averages and records for this station are not official NWS values.
T = Trace of Precipitation, MM = Missing Value Source: NWS Daily Summary

Daily Weather History Graph

Daily Weather History Graph

Search for Another Location

Airport:

Trip Planner

Search our weather history database for the weather conditions in past years. The results will help you decide how hot, cold, wet, or windy it might be!

Date:

Astronomy

Jan. 21, 2013 Rise Set
Actual Time 7:44 AM CST 5:14 PM CST
Civil Twilight 7:12 AM CST 5:45 PM CST
Nautical Twilight 6:37 AM CST 6:20 PM CST
Astronomical Twilight 6:03 AM CST 6:55 PM CST
Moon 12:54 PM CST (1/21) 3:13 AM CST (1/21)
Length of Visible Light 10h 33m
Length of Day
9h 30m
Waxing Gibbous, 75% of the Moon is Illuminated
Jan 21
Waxing Gibbous
Jan 26
Full
Feb 3
Last Quarter
Feb 10
New
Feb 17
First Quarter

Hourly Weather History & Observations

Time (CST) Temp. Windchill Dew Point Humidity Pressure Visibility Wind Dir Wind Speed Gust Speed Precip Events Conditions
12:15 AM 1.4 °F -19.4 °F -7.6 °F 66% 30.29 in 10.0 mi NW 18.4 mph - N/A   Clear
12:35 AM 1.4 °F -19.4 °F -5.8 °F 72% 30.29 in 7.0 mi NW 18.4 mph 21.9 mph N/A   Mostly Cloudy
12:55 AM 1.4 °F -16.9 °F -5.8 °F 72% 30.28 in 8.0 mi WNW 13.8 mph 23.0 mph N/A   Overcast
1:15 AM 1.4 °F -18.2 °F -7.6 °F 66% 30.29 in 10.0 mi WNW 16.1 mph 23.0 mph N/A   Mostly Cloudy
1:35 AM 1.4 °F -18.2 °F -7.6 °F 66% 30.29 in 10.0 mi WNW 16.1 mph 25.3 mph N/A   Scattered Clouds
1:55 AM 1.4 °F -21.9 °F -7.6 °F 66% 30.29 in 9.0 mi WNW 24.2 mph 28.8 mph N/A   Mostly Cloudy
2:15 AM -0.4 °F -23.8 °F -13.0 °F 55% 30.30 in 10.0 mi WNW 23.0 mph 31.1 mph N/A   Partly Cloudy
2:35 AM -0.4 °F -22.8 °F -13.0 °F 55% 30.31 in 10.0 mi WNW 20.7 mph 28.8 mph N/A   Clear
2:55 AM -2.2 °F -25.2 °F -14.8 °F 55% 30.31 in 10.0 mi WNW 20.7 mph 27.6 mph N/A   Clear
3:15 AM -2.2 °F -25.7 °F -14.8 °F 55% 30.31 in 10.0 mi NW 21.9 mph - N/A   Scattered Clouds
3:35 AM -4.0 °F -26.4 °F -14.8 °F 60% 30.32 in 10.0 mi WNW 18.4 mph 24.2 mph N/A   Scattered Clouds
3:55 AM -5.8 °F -28.8 °F -16.6 °F 60% 30.31 in 10.0 mi WNW 18.4 mph 25.3 mph N/A   Mostly Cloudy
4:15 AM -5.8 °F -29.4 °F -14.8 °F 65% 30.32 in 10.0 mi WNW 19.6 mph 28.8 mph N/A   Mostly Cloudy
4:55 AM -5.8 °F -28.8 °F -16.6 °F 60% 30.32 in 10.0 mi WNW 18.4 mph 28.8 mph N/A   Scattered Clouds
5:15 AM -5.8 °F -27.5 °F -14.8 °F 65% 30.32 in 10.0 mi WNW 16.1 mph 25.3 mph N/A   Partly Cloudy
5:35 AM -5.8 °F -28.2 °F -16.6 °F 60% 30.31 in 10.0 mi WNW 17.3 mph 24.2 mph N/A   Clear
5:55 AM -5.8 °F -27.5 °F -14.8 °F 65% 30.32 in 10.0 mi WNW 16.1 mph - N/A   Clear
6:15 AM -5.8 °F -26.8 °F -16.6 °F 60% 30.31 in 10.0 mi WNW 15.0 mph 23.0 mph N/A   Clear
6:35 AM -5.8 °F -29.4 °F -16.6 °F 60% 30.31 in 10.0 mi WNW 19.6 mph 23.0 mph N/A   Clear
6:55 AM -5.8 °F -27.5 °F -16.6 °F 60% 30.31 in 10.0 mi WNW 16.1 mph 19.6 mph N/A   Clear
7:15 AM -5.8 °F -26.8 °F -14.8 °F 65% 30.31 in 10.0 mi WNW 15.0 mph 18.4 mph N/A   Clear
7:35 AM -5.8 °F -27.5 °F -14.8 °F 65% 30.31 in 10.0 mi WNW 16.1 mph 21.9 mph N/A   Clear
7:55 AM -5.8 °F -26.8 °F -14.8 °F 65% 30.31 in 10.0 mi WNW 15.0 mph 19.6 mph N/A   Clear
8:15 AM -5.8 °F -28.2 °F -14.8 °F 65% 30.31 in 10.0 mi NW 17.3 mph - N/A   Clear
8:35 AM -5.8 °F -28.2 °F -13.0 °F 71% 30.31 in 10.0 mi WNW 17.3 mph 23.0 mph N/A   Clear
8:55 AM -4.0 °F -27.0 °F -14.8 °F 60% 30.32 in 10.0 mi WNW 19.6 mph 23.0 mph N/A   Clear
9:15 AM -2.2 °F -24.7 °F -13.0 °F 60% 30.32 in 10.0 mi WNW 19.6 mph - N/A   Clear
9:35 AM -2.2 °F -23.5 °F -13.0 °F 60% 30.33 in 10.0 mi WNW 17.3 mph - N/A   Clear
9:55 AM -2.2 °F -24.1 °F -13.0 °F 60% 30.34 in 10.0 mi WNW 18.4 mph 24.2 mph N/A   Clear
10:15 AM -0.4 °F -21.2 °F -11.2 °F 60% 30.34 in 10.0 mi WNW 17.3 mph 21.9 mph N/A   Clear
10:35 AM -0.4 °F -22.3 °F - N/A% 30.34 in 10.0 mi WNW 19.6 mph 23.0 mph N/A   Clear
10:55 AM -0.4 °F -21.2 °F -11.2 °F 60% 30.35 in 10.0 mi WNW 17.3 mph 23.0 mph N/A   Clear
11:15 AM 1.4 °F -18.8 °F -9.4 °F 61% 30.34 in 10.0 mi WNW 17.3 mph - N/A   Clear
11:35 AM 1.4 °F -17.6 °F -9.4 °F 61% 30.33 in 10.0 mi WNW 15.0 mph 24.2 mph N/A   Clear
11:55 AM 1.4 °F -18.8 °F -9.4 °F 61% 30.32 in 10.0 mi WNW 17.3 mph - N/A   Clear
12:15 PM 3.2 °F -15.3 °F -9.4 °F 56% 30.31 in 10.0 mi West 15.0 mph - N/A   Clear
12:35 PM 3.2 °F -15.3 °F -9.4 °F 56% 30.30 in 10.0 mi WNW 15.0 mph 20.7 mph N/A   Partly Cloudy
12:55 PM 5.0 °F -13.6 °F -9.4 °F 52% 30.29 in 10.0 mi WNW 16.1 mph 21.9 mph N/A   Scattered Clouds
1:15 PM 5.0 °F -14.2 °F -7.6 °F 56% 30.28 in 10.0 mi West 17.3 mph 21.9 mph N/A   Scattered Clouds
1:35 PM 5.0 °F -13.6 °F -7.6 °F 56% 30.27 in 10.0 mi WNW 16.1 mph 23.0 mph N/A   Partly Cloudy
1:55 PM 6.8 °F -10.7 °F -7.6 °F 52% 30.27 in 10.0 mi WNW 15.0 mph 23.0 mph N/A   Partly Cloudy
2:15 PM 6.8 °F -11.8 °F -7.6 °F 52% 30.26 in 10.0 mi WNW 17.3 mph 21.9 mph N/A   Clear
2:35 PM 6.8 °F -11.3 °F -7.6 °F 52% 30.26 in 10.0 mi NW 16.1 mph 25.3 mph N/A   Partly Cloudy
2:55 PM 6.8 °F -11.3 °F -7.6 °F 52% 30.27 in 10.0 mi NW 16.1 mph - N/A   Partly Cloudy
3:15 PM 6.8 °F -12.9 °F -7.6 °F 52% 30.27 in 10.0 mi WNW 19.6 mph 25.3 mph N/A   Partly Cloudy
3:35 PM 6.8 °F -11.3 °F -7.6 °F 52% 30.27 in 10.0 mi NW 16.1 mph 20.7 mph N/A   Clear
3:55 PM 6.8 °F -10.7 °F -7.6 °F 52% 30.27 in 10.0 mi WNW 15.0 mph - N/A   Partly Cloudy
4:15 PM 6.8 °F -11.3 °F -7.6 °F 52% 30.27 in 10.0 mi WNW 16.1 mph - N/A   Clear
4:35 PM 6.8 °F -11.3 °F -7.6 °F 52% 30.27 in 10.0 mi WNW 16.1 mph 23.0 mph N/A   Clear
4:55 PM 6.8 °F -12.4 °F -9.4 °F 48% 30.27 in 10.0 mi WNW 18.4 mph - N/A   Clear
5:15 PM 5.0 °F -13.0 °F -7.6 °F 56% 30.27 in 10.0 mi WNW 15.0 mph 19.6 mph N/A   Clear
5:35 PM 5.0 °F -12.3 °F -9.4 °F 52% 30.27 in 10.0 mi WNW 13.8 mph - N/A   Clear
5:55 PM 3.2 °F -13.9 °F -7.6 °F 61% 30.27 in 10.0 mi WNW 12.7 mph 19.6 mph N/A   Clear
6:15 PM 3.2 °F -13.1 °F -7.6 °F 61% 30.28 in 10.0 mi WNW 11.5 mph - N/A   Clear
6:35 PM 3.2 °F -13.9 °F -7.6 °F 61% 30.27 in 10.0 mi WNW 12.7 mph - N/A   Clear
6:55 PM 3.2 °F -14.6 °F -7.6 °F 61% 30.27 in 10.0 mi WNW 13.8 mph - N/A   Clear
7:15 PM 3.2 °F -12.2 °F -7.6 °F 61% 30.28 in 10.0 mi WNW 10.4 mph - N/A   Clear
7:35 PM 3.2 °F -11.3 °F -7.6 °F 61% 30.28 in 10.0 mi WNW 9.2 mph - N/A   Clear
7:55 PM 1.4 °F -13.5 °F -7.6 °F 66% 30.28 in 10.0 mi WNW 9.2 mph - N/A   Clear
8:15 PM 1.4 °F -16.1 °F -7.6 °F 66% 30.28 in 10.0 mi WNW 12.7 mph - N/A   Clear
8:35 PM 1.4 °F -16.1 °F -7.6 °F 66% 30.28 in 10.0 mi WNW 12.7 mph - N/A   Clear
8:55 PM 1.4 °F -14.5 °F -7.6 °F 66% 30.28 in 10.0 mi WNW 10.4 mph - N/A   Clear
9:15 PM 1.4 °F -13.5 °F -7.6 °F 66% 30.28 in 10.0 mi WNW 9.2 mph - N/A   Clear
9:35 PM 1.4 °F -15.3 °F -5.8 °F 72% 30.28 in 10.0 mi WNW 11.5 mph - N/A   Clear
9:55 PM 1.4 °F -14.5 °F -7.6 °F 66% 30.28 in 10.0 mi WNW 10.4 mph - N/A   Clear
10:15 PM 1.4 °F -15.3 °F -5.8 °F 72% 30.28 in 10.0 mi WNW 11.5 mph - N/A   Clear
10:35 PM 1.4 °F -14.5 °F -7.6 °F 66% 30.27 in 10.0 mi WNW 10.4 mph - N/A   Clear
10:55 PM 1.4 °F -15.3 °F -7.6 °F 66% 30.28 in 10.0 mi WNW 11.5 mph - N/A   Clear
11:15 PM 1.4 °F -13.5 °F -7.6 °F 66% 30.28 in 10.0 mi WNW 9.2 mph - N/A   Clear
11:35 PM 1.4 °F -14.5 °F -7.6 °F 66% 30.28 in 10.0 mi WNW 10.4 mph - N/A   Clear
11:55 PM 3.2 °F -12.2 °F -7.6 °F 61% 30.28 in 10.0 mi WNW 10.4 mph - N/A   Clear